Total_Precipitation_Accumulation
0.92 0.89 1.01 1.31 1.41 1.41 0.88 0.96 1.23 1.29 0.87 1.14 1.17 1.06 0.77 0.56 0.17 0.03 0.00 0.01 0.01 0.01 0.01 0.00 0.01 0.02 0.02 0.01 0.00 0.00 0.00 0.04 0.10 0.13 0.03 0.01 0.02 0.01 0.04 0.23 0.09 0.13 0.06 0.06
0.96 1.07 1.31 1.45 1.51 1.27 1.02 0.95 1.29 1.19 0.68 0.66 0.58 0.46 0.32 0.14 0.08 0.04 0.01 0.01 0.02 0.02 0.01 0.01 0.01 0.00 0.00 0.00 0.00 0.00 0.00 0.05 0.12 0.18 0.16 0.06 0.06 0.02 0.10 0.21 0.39 0.25 0.12 0.04
0.75 0.84 1.07 1.11 1.60 0.99 1.00 1.16 1.29 1.17 0.78 0.33 0.15 0.31 0.22 0.13 0.09 0.02 0.00 0.00 0.00 0.00 0.00 0.00 0.00 0.00 0.00 0.00 0.00 0.00 0.01 0.03 0.03 0.06 0.09 0.20 0.18 0.03 0.10 0.42 0.55 0.09 0.04 0.00
0.69 0.56 0.76 0.98 1.03 0.93 1.19 0.95 0.49 0.35 0.35 0.13 0.12 0.17 0.18 0.12 0.05 0.01 0.00 0.01 0.00 0.00 0.01 0.00 0.00 0.00 0.00 0.00 0.00 0.01 0.04 0.05 0.02 0.02 0.06 0.22 0.20 0.08 0.07 0.32 0.17 0.23 0.06 0.00
1.11 1.08 1.04 0.96 0.90 0.94 1.18 0.65 0.30 0.16 0.03 0.06 0.10 0.05 0.09 0.05 0.00 0.01 0.01 0.01 0.00 0.01 0.01 0.01 0.00 0.00 0.00 0.01 0.00 0.02 0.05 0.09 0.06 0.06 0.05 0.10 0.16 0.04 0.06 0.06 0.02 0.02 0.01 0.00
1.02 1.02 1.02 1.07 0.93 1.10 0.87 0.59 0.18 0.06 0.06 0.05 0.03 0.02 0.00 0.01 0.00 0.01 0.01 0.01 0.03 0.02 0.01 0.00 0.00 0.00 0.00 0.00 0.01 0.03 0.06 0.08 0.15 0.07 0.04 0.11 0.13 0.04 0.02 0.01 0.00 0.01 0.01 0.01
0.69 0.82 0.65 0.50 0.52 0.74 0.45 0.35 0.17 0.03 0.05 0.01 0.00 0.00 0.00 0.00 0.00 0.01 0.00 0.00 0.04 0.03 0.01 0.01 0.01 0.00 0.00 0.01 0.00 0.01 0.02 0.06 0.19 0.09 0.09 0.24 0.13 0.02 0.00 0.00 0.00 0.00 0.01 0.01
1.15 0.92 0.66 0.57 0.66 0.62 0.18 0.21 0.15 0.07 0.02 0.00 0.00 0.00 0.00 0.00 0.00 0.00 0.00 0.00 0.00 0.01 0.02 0.05 0.05 0.02 0.01 0.00 0.00 0.01 0.01 0.06 0.18 0.16 0.17 0.09 0.01 0.00 0.00 0.00 0.00 0.00 0.03 0.01
1.48 1.56 1.22 0.78 0.57 0.35 0.07 0.11 0.19 0.15 0.04 0.00 0.00 0.00 0.00 0.00 0.00 0.02 0.02 0.03 0.01 0.01 0.06 0.15 0.10 0.04 0.01 0.01 0.02 0.01 0.02 0.03 0.16 0.10 0.09 0.01 0.01 0.00 0.00 0.02 0.01 0.00 0.04 0.03
0.56 0.67 0.79 0.73 0.41 0.21 0.03 0.08 0.14 0.22 0.07 0.01 0.00 0.00 0.00 0.00 0.01 0.02 0.02 0.06 0.02 0.03 0.11 0.17 0.08 0.02 0.00 0.01 0.01 0.03 0.07 0.10 0.15 0.14 0.15 0.00 0.00 0.00 0.00 0.00 0.01 0.00 0.02 0.05
0.53 0.59 0.41 0.35 0.28 0.12 0.04 0.06 0.09 0.22 0.12 0.02 0.00 0.00 0.01 0.01 0.02 0.03 0.01 0.02 0.02 0.06 0.14 0.13 0.07 0.03 0.01 0.00 0.00 0.00 0.02 0.04 0.06 0.07 0.09 0.01 0.00 0.00 0.00 0.00 0.00 0.00 0.00 0.04
0.91 0.73 0.39 0.28 0.20 0.13 0.07 0.04 0.08 0.15 0.14 0.04 0.00 0.00 0.00 0.00 0.01 0.01 0.00 0.03 0.01 0.04 0.12 0.16 0.10 0.04 0.01 0.00 0.00 0.00 0.00 0.00 0.00 0.00 0.00 0.00 0.00 0.00 0.00 0.00 0.00 0.00 0.01 0.01
0.78 0.67 0.42 0.24 0.20 0.17 0.23 0.10 0.04 0.10 0.13 0.02 0.00 0.01 0.00 0.00 0.00 0.01 0.01 0.02 0.01 0.04 0.12 0.26 0.11 0.06 0.04 0.02 0.01 0.00 0.00 0.00 0.00 0.00 0.00 0.00 0.00 0.00 0.00 0.00 0.00 0.00 0.02 0.02
0.58 0.47 0.29 0.19 0.16 0.21 0.17 0.05 0.06 0.12 0.12 0.10 0.02 0.00 0.00 0.00 0.00 0.01 0.02 0.04 0.02 0.08 0.16 0.18 0.14 0.06 0.03 0.02 0.01 0.00 0.01 0.00 0.00 0.00 0.00 0.00 0.00 0.00 0.00 0.00 0.00 0.00 0.00 0.00
0.61 0.31 0.16 0.17 0.18 0.11 0.06 0.02 0.04 0.08 0.16 0.20 0.05 0.05 0.00 0.00 0.01 0.04 0.04 0.08 0.15 0.15 0.27 0.31 0.16 0.07 0.05 0.01 0.00 0.00 0.00 0.00 0.00 0.00 0.00 0.00 0.00 0.00 0.00 0.00 0.00 0.00 0.00 0.00
0.61 0.26 0.20 0.17 0.08 0.10 0.07 0.08 0.23 0.16 0.16 0.38 0.18 0.23 0.03 0.03 0.05 0.14 0.15 0.17 0.30 0.40 0.30 0.28 0.28 0.14 0.15 0.12 0.03 0.00 0.00 0.00 0.00 0.00 0.00 0.00 0.00 0.00 0.00 0.00 0.00 0.00 0.00 0.00
0.39 0.21 0.15 0.05 0.03 0.07 0.04 0.13 0.56 0.28 0.21 0.34 0.41 0.58 0.15 0.13 0.21 0.20 0.41 0.29 0.47 0.50 0.46 0.29 0.21 0.22 0.48 0.31 0.05 0.00 0.00 0.00 0.00 0.00 0.00 0.00 0.00 0.00 0.00 0.00 0.00 0.00 0.00 0.00
0.23 0.10 0.03 0.04 0.06 0.03 0.03 0.02 0.10 0.28 0.64 0.61 0.89 0.88 0.45 0.49 0.56 0.44 0.55 0.56 0.66 0.74 0.61 0.28 0.29 0.27 0.34 0.20 0.01 0.01 0.02 0.01 0.01 0.01 0.00 0.00 0.00 0.00 0.00 0.00 0.00 0.00 0.00 0.00
0.06 0.01 0.01 0.13 0.08 0.04 0.03 0.05 0.15 0.45 0.91 0.79 0.70 0.67 0.62 0.68 0.67 0.65 0.56 0.82 0.72 0.65 0.49 0.19 0.27 0.35 0.32 0.07 0.04 0.05 0.08 0.14 0.16 0.17 0.11 0.05 0.02 0.02 0.02 0.02 0.01 0.01 0.02 0.01
0.00 0.00 0.02 0.10 0.01 0.00 0.06 0.28 0.67 0.79 0.72 0.50 0.53 0.61 0.67 0.88 0.67 0.56 0.61 0.64 0.50 0.60 0.31 0.22 0.23 0.16 0.07 0.05 0.07 0.08 0.08 0.19 0.26 0.33 0.36 0.30 0.18 0.06 0.04 0.07 0.10 0.09 0.08 0.07
0.00 0.00 0.01 0.02 0.00 0.15 0.47 0.75 0.74 0.55 0.36 0.30 0.37 0.52 0.47 0.41 0.52 0.48 0.57 0.74 0.40 0.45 0.55 0.30 0.24 0.22 0.15 0.07 0.03 0.02 0.02 0.05 0.09 0.15 0.32 0.38 0.26 0.22 0.12 0.11 0.17 0.24 0.23 0.20
0.01 0.02 0.01 0.02 0.13 0.38 0.49 0.60 0.46 0.21 0.15 0.21 0.38 0.37 0.35 0.26 0.30 0.38 0.39 0.44 0.36 0.41 0.56 0.40 0.30 0.27 0.12 0.15 0.15 0.09 0.05 0.10 0.06 0.09 0.13 0.14 0.12 0.16 0.18 0.13 0.13 0.15 0.24 0.31
0.01 0.01 0.01 0.06 0.15 0.27 0.32 0.34 0.27 0.07 0.07 0.10 0.11 0.21 0.21 0.24 0.29 0.20 0.24 0.18 0.10 0.21 0.37 0.44 0.20 0.03 0.03 0.02 0.03 0.10 0.23 0.32 0.24 0.11 0.15 0.16 0.17 0.15 0.12 0.13 0.11 0.08 0.07 0.12
0.00 0.00 0.00 0.06 0.09 0.14 0.14 0.12 0.12 0.05 0.04 0.03 0.05 0.10 0.14 0.24 0.18 0.19 0.16 0.05 0.08 0.25 0.28 0.17 0.06 0.06 0.03 0.00 0.00 0.00 0.03 0.13 0.29 0.35 0.41 0.39 0.46 0.43 0.44 0.45 0.40 0.31 0.24 0.18
0.00 0.00 0.00 0.01 0.03 0.02 0.01 0.02 0.05 0.03 0.04 0.05 0.03 0.05 0.05 0.12 0.16 0.12 0.15 0.11 0.30 0.37 0.21 0.14 0.08 0.03 0.01 0.01 0.01 0.00 0.00 0.01 0.01 0.07 0.24 0.32 0.38 0.49 0.44 0.39 0.31 0.23 0.21 0.22
0.00 0.00 0.00 0.00 0.01 0.00 0.00 0.00 0.01 0.01 0.03 0.06 0.09 0.12 0.11 0.08 0.18 0.15 0.10 0.16 0.35 0.32 0.14 0.06 0.01 0.01 0.04 0.02 0.02 0.01 0.00 0.00 0.00 0.00 0.02 0.06 0.07 0.11 0.12 0.10 0.18 0.23 0.21 0.23
0.04 0.00 0.00 0.00 0.01 0.00 0.00 0.00 0.00 0.01 0.06 0.20 0.30 0.25 0.10 0.09 0.12 0.05 0.05 0.18 0.16 0.07 0.03 0.02 0.01 0.01 0.05 0.05 0.02 0.02 0.02 0.03 0.04 0.03 0.06 0.10 0.10 0.14 0.19 0.14 0.09 0.10 0.16 0.20